Hibbing, MN

10:25 PM CDT on July 22, 2017 (GMT -0500)
Chisholm-hibbing

Weather History for KHIB - November, 2011

Change the Weather History Date:

Saturday, November 12, 2011

  Actual Average Record
Temperature  
Mean Temperature 36 °F -  
Max Temperature 54 °F 32 °F 69 °F (1996)
Min Temperature 19 °F 16 °F -9 °F (1966)
Degree Days  
Heating Degree Days 28    
Moisture  
Dew Point 25 °F    
Average Humidity 69    
Maximum Humidity 96    
Minimum Humidity 33    
Precipitation  
Precipitation 0.00 in - - ()
Sea Level Pressure  
Sea Level Pressure 29.42 in    
Wind  
Wind Speed 3 mph (SE)    
Max Wind Speed 12 mph    
Max Gust Speed -    
Visibility 10 miles    
Events      
Averages and records for this station are not official NWS values.
T = Trace of Precipitation, MM = Missing Value Source: NWS Daily Summary

Daily Weather History Graph

Daily Weather History Graph

Search for Another Location

Airport or City:

Trip Planner

Search our weather history database for the weather conditions in past years. The results will help you decide how hot, cold, wet, or windy it might be!

Date:

Astronomy

Nov. 12, 2011 Rise Set
Actual Time 7:11 AM CST 4:39 PM CST
Civil Twilight 6:37 AM CST 5:12 PM CST
Nautical Twilight 6:00 AM CST 5:49 PM CST
Astronomical Twilight 5:24 AM CST 6:25 PM CST
Moon 5:47 PM CST (11/12) 9:01 AM CST (11/12)
Length of Visible Light 10h 34m
Length of Day
9h 28m
Full, 97% of the Moon is Illuminated
Nov 12
Full
Nov 18
Last Quarter
Nov 25
New
Dec 2
First Quarter
Dec 10
Full

Hourly Weather History & Observations

Time (CST) Temp. Windchill Dew Point Humidity Pressure Visibility Wind Dir Wind Speed Gust Speed Precip Events Conditions
12:53 AM 19.9 °F - 19.0 °F 96% 29.56 in 10.0 mi Calm Calm - N/A   Clear
1:53 AM 21.0 °F - 19.0 °F 92% 29.55 in 10.0 mi Calm Calm - N/A   Scattered Clouds
2:53 AM 19.0 °F - 18.0 °F 96% 29.57 in 10.0 mi Calm Calm - N/A   Clear
3:53 AM 19.9 °F - 17.1 °F 89% 29.55 in 10.0 mi Calm Calm - N/A   Clear
4:53 AM 19.9 °F - 18.0 °F 92% 29.55 in 10.0 mi Calm Calm - N/A   Clear
5:53 AM 19.4 °F - 17.6 °F 93% 29.49 in 10.0 mi Calm Calm - N/A   Clear
6:53 AM 19.0 °F - 16.0 °F 88% 29.55 in 10.0 mi Calm Calm - N/A   Clear
7:53 AM 19.0 °F - 16.0 °F 88% 29.55 in 10.0 mi Calm Calm - N/A   Clear
8:53 AM 30.9 °F - 26.1 °F 82% 29.54 in 10.0 mi Calm Calm - N/A   Clear
9:53 AM 37.0 °F 32.4 °F 28.0 °F 70% 29.52 in 10.0 mi SE 5.8 mph - N/A   Clear
10:53 AM 42.1 °F 36.6 °F 28.0 °F 58% 29.50 in 10.0 mi SE 9.2 mph - N/A   Clear
11:53 AM 48.0 °F - 27.0 °F 44% 29.48 in 10.0 mi SSE 8.1 mph - N/A   Clear
12:53 PM 52.0 °F - 27.0 °F 38% 29.44 in 10.0 mi SE 11.5 mph - N/A   Clear
1:53 PM 54.0 °F - 25.0 °F 33% 29.41 in 10.0 mi SSE 9.2 mph - N/A   Clear
2:53 PM 52.0 °F - 26.1 °F 37% 29.38 in 10.0 mi SE 8.1 mph - N/A   Clear
3:53 PM 50.0 °F - 27.0 °F 41% 29.36 in 10.0 mi SE 9.2 mph - N/A   Clear
4:53 PM 46.0 °F 41.9 °F 27.0 °F 47% 29.34 in 10.0 mi SE 8.1 mph - N/A   Clear
5:53 PM 43.0 °F 38.2 °F 28.0 °F 56% 29.31 in 10.0 mi SE 8.1 mph - N/A   Clear
6:53 PM 41.0 °F 35.8 °F 28.9 °F 62% 29.29 in 10.0 mi SE 8.1 mph - N/A   Clear
7:53 PM 39.9 °F 33.4 °F 30.0 °F 68% 29.26 in 10.0 mi SE 10.4 mph - N/A   Clear
8:53 PM 42.1 °F 36.6 °F 30.9 °F 65% 29.24 in 10.0 mi SSE 9.2 mph - N/A   Clear
9:53 PM 42.1 °F 37.1 °F 32.0 °F 67% 29.21 in 10.0 mi SSE 8.1 mph - N/A   Clear
10:53 PM 41.0 °F 35.8 °F 32.0 °F 70% 29.17 in 10.0 mi SE 8.1 mph - N/A   Clear
11:53 PM 41.0 °F 38.0 °F 33.1 °F 73% 29.15 in 10.0 mi SSE 4.6 mph - N/A   Clear